Weather History for Milwaukee, WI

Change the Weather History Date:

Tuesday, August 19, 2014

  Actual Average Record
Temperature  
Mean Temperature 74 °F 71 °F  
Max Temperature 83 °F 78 °F 98 °F (1955)
Min Temperature 65 °F 63 °F 50 °F (1977)
Degree Days  
Heating Degree Days 0 0  
Month to date heating degree days 5 0  
Since 1 June heating degree days 100 95  
Since 1 July heating degree days 26 11  
Cooling Degree Days 9 6  
Month to date cooling degree days 76 128  
Year to date cooling degree days 311 500  
Since 1 June cooling degree days 293 470  
Growing Degree Days 23 (Base 50)    
Moisture  
Dew Point 65 °F    
Average Humidity 71    
Maximum Humidity 87    
Minimum Humidity 55    
Precipitation  
Precipitation 1.01 in 0.14 in 1.44 in (1904)
Month to date precipitation 3.14 2.55  
Year to date precipitation 22.74 22.76  
Snow  
Snow 0.00 in 0.00 in 0.00 in ()
Month to date snowfall 0.0 0.0  
Since 1 June snowfall 0.0 0.0  
Since 1 July snowfall 0.0 0.0  
Snow Depth 0.00 in    
Sea Level Pressure  
Sea Level Pressure 29.71 in    
Wind  
Wind Speed 8 mph (SW)    
Max Wind Speed 23 mph    
Max Gust Speed 30 mph    
Visibility 9 miles    
Events Rain , Thunderstorm    
T = Trace of Precipitation, MM = Missing Value Source: NWS Daily Summary

Daily Weather History Graph

Daily Weather History Graph

Search for Another Location

Airport:

Trip Planner

Search our weather history database for the weather conditions in past years. The results will help you decide how hot, cold, wet, or windy it might be!

Date:

Astronomy

Aug. 19, 2014 Rise Set
Actual Time 6:01 AM CDT 7:47 PM CDT
Civil Twilight 5:31 AM CDT 8:17 PM CDT
Nautical Twilight 4:54 AM CDT 8:54 PM CDT
Astronomical Twilight 4:15 AM CDT 9:33 PM CDT
Moon 12:51 AM CDT (8/19) 3:46 PM CDT (8/19)
Length of Visible Light 14h 46m
Length of Day
13h 45m
Waning Crescent, 29% of the Moon is Illuminated
Aug 19
Waning Crescent
Aug 25
New
Sep 2
First Quarter
Sep 8
Full
Sep 15
Last Quarter

Hourly Weather History & Observations

Time (CDT) Temp. Heat Index Dew Point Humidity Pressure Visibility Wind Dir Wind Speed Gust Speed Precip Events Conditions
12:52 AM 69.1 °F - 60.1 °F 73% 29.73 in 10.0 mi South 8.1 mph - N/A   Partly Cloudy
1:52 AM 69.1 °F - 60.1 °F 73% 29.72 in 10.0 mi SSW 5.8 mph - N/A   Scattered Clouds
2:52 AM 71.1 °F - 64.9 °F 81% 29.70 in 10.0 mi SSW 11.5 mph - N/A   Mostly Cloudy
3:31 AM 71.1 °F - 63.0 °F 75% 29.74 in 9.0 mi NW 16.1 mph 23.0 mph N/A Thunderstorm Thunderstorm
3:46 AM 66.2 °F - 62.6 °F 88% 29.76 in 2.0 mi West 8.1 mph 23.0 mph 0.36 in Rain , Thunderstorm Thunderstorms and Rain
3:52 AM 66.2 °F - 62.6 °F 88% 29.75 in 3.0 mi WSW 6.9 mph - N/A Rain , Thunderstorm Thunderstorms and Rain
4:24 AM 66.0 °F - 63.0 °F 90% 29.74 in 5.0 mi WSW 8.1 mph - 0.40 in Rain , Thunderstorm Thunderstorms and Rain
4:52 AM 66.0 °F - 63.0 °F 90% 29.70 in 10.0 mi SSW 10.4 mph - 0.48 in Rain Light Rain
5:52 AM 66.0 °F - 63.0 °F 90% 29.69 in 10.0 mi SSW 12.7 mph - 0.00 in   Mostly Cloudy
6:52 AM 66.2 °F - 62.6 °F 88% 29.70 in 10.0 mi SSW 10.4 mph - N/A   Mostly Cloudy
7:08 AM 66.9 °F - 63.0 °F 87% 29.71 in 10.0 mi SSW 9.2 mph - N/A   Mostly Cloudy
7:52 AM 68.0 °F - 64.0 °F 87% 29.70 in 10.0 mi SSW 9.2 mph - N/A   Mostly Cloudy
8:52 AM 72.0 °F - 66.9 °F 84% 29.70 in 9.0 mi SW 11.5 mph - N/A   Mostly Cloudy
9:39 AM 73.9 °F - 68.0 °F 82% 29.71 in 7.0 mi WSW 10.4 mph - N/A   Overcast
9:52 AM 75.0 °F - 69.1 °F 82% 29.70 in 8.0 mi SW 10.4 mph - N/A   Mostly Cloudy
10:03 AM 75.0 °F - 68.0 °F 79% 29.70 in 9.0 mi SW 10.4 mph - N/A   Overcast
10:52 AM 77.0 °F - 68.0 °F 74% 29.69 in 10.0 mi WSW 11.5 mph - N/A   Mostly Cloudy
11:52 AM 79.0 °F - 68.0 °F 69% 29.68 in 10.0 mi West 10.4 mph - N/A   Scattered Clouds
12:52 PM 82.0 °F 84.1 °F 66.0 °F 58% 29.66 in 10.0 mi West 15.0 mph - N/A   Scattered Clouds
1:52 PM 82.0 °F 83.8 °F 64.9 °F 56% 29.65 in 10.0 mi WNW 11.5 mph - N/A   Scattered Clouds
2:52 PM 80.1 °F 81.9 °F 64.9 °F 60% 29.67 in 10.0 mi West 9.2 mph - 0.00 in   Mostly Cloudy
3:52 PM 82.4 °F 83.9 °F 64.4 °F 54% 29.68 in 10.0 mi West 12.7 mph - N/A   Scattered Clouds
4:52 PM 77.0 °F - 66.0 °F 69% 29.68 in 10.0 mi East 6.9 mph - 0.00 in   Mostly Cloudy
5:52 PM 75.9 °F - 66.0 °F 71% 29.70 in 10.0 mi ENE 8.1 mph - N/A   Mostly Cloudy
6:52 PM 73.9 °F - 66.0 °F 76% 29.70 in 10.0 mi East 5.8 mph - N/A   Mostly Cloudy
7:52 PM 73.9 °F - 64.9 °F 73% 29.71 in 10.0 mi Calm Calm - N/A   Scattered Clouds
8:52 PM 72.0 °F - 64.9 °F 78% 29.73 in 10.0 mi ESE 3.5 mph - N/A   Scattered Clouds
9:52 PM 72.0 °F - 64.9 °F 78% 29.75 in 10.0 mi Calm Calm - N/A   Mostly Cloudy
10:52 PM 69.1 °F - 64.9 °F 87% 29.75 in 10.0 mi Calm Calm - N/A   Partly Cloudy
11:52 PM 68.0 °F - 64.9 °F 90% 29.76 in 10.0 mi Calm Calm - N/A   Clear